This demonstration page uses our WeatherBlox Daily Observations layout. Learn more.

Left ArrowRight Arrow

Hourly Observations for May 18, 2021

Temp ( °F °C ) Dew Point ( °F °C ) Humidity (%) Winds ( mph kmh ) Pressure ( in mb ) Visibility ( mi km ) Precip ( " mm )
12:53 am 00:53 Mostly Clear 56 13.3 54 12.2 93 93 ENE 6 9 30.25 1024 9 14 N/A
1:20 am 01:20 Mostly Cloudy 57 13.9 56 13.3 96 96 E 3 6 30.25 1024 9 14 N/A
1:43 am 01:43 Partly Cloudy 56 13.3 55 12.8 97 97 E 5 7 30.24 1024 7 11 N/A
1:53 am 01:53 Mostly Cloudy 56 13.3 55 12.8 97 97 E 3 6 30.24 1024 7 11 N/A
2:36 am 02:36 Cloudy 58 14.4 57 13.9 97 97 E 3 6 30.25 1024 7 11 N/A
2:53 am 02:53 Cloudy with Mist and Fog 58 14.4 57 13.9 97 97 N N/A 30.24 1024 6 10 N/A
3:08 am 03:08 Cloudy with Mist and Fog 58 14.4 57 13.9 97 97 ENE 5 7 30.24 1024 6 10 N/A
3:53 am 03:53 Cloudy with Mist and Fog 58 14.4 57 13.9 97 97 N N/A 30.24 1024 6 10 N/A
4:53 am 04:53 Cloudy 59 15 57 13.9 93 93 ENE 3 6 30.25 1024 7 11 N/A
5:53 am 05:53 Cloudy with Mist and Fog 59 15 57 13.9 93 93 E 7 11 30.26 1025 6 10 N/A
6:09 am 06:09 Cloudy with Mist and Fog 59 15 57 13.9 93 93 ENE 5 7 30.27 1025 5 8 N/A
6:53 am 06:53 Cloudy with Mist and Fog 59 15 57 13.9 93 93 N N/A 30.28 1025 4 6 N/A
7:53 am 07:53 Cloudy with Mist and Fog 60 15.6 58 14.4 93 93 E 6 9 30.29 1026 4 6 N/A
8:53 am 08:53 Cloudy with Mist and Fog 61 16.1 58 14.4 90 90 ESE 3 6 30.32 1027 6 10 N/A
9:33 am 09:33 Cloudy 62 16.7 59 15 90 90 N N/A 30.32 1027 7 11 N/A
9:53 am 09:53 Mostly Cloudy 63 17.2 58 14.4 84 84 VRB 3 6 30.32 1027 8 13 N/A
10:11 am 10:11 Cloudy 63 17.2 58 14.4 84 84 ESE 3 6 30.32 1027 8 13 N/A
10:53 am 10:53 Cloudy 64 17.8 59 15 84 84 ESE 5 7 30.32 1027 8 13 0.00 0.00
11:53 am 11:53 Cloudy 66 18.9 60 15.6 81 81 VRB 5 7 30.33 1027 10 16 N/A
12:53 pm 12:53 Mostly Sunny 69 20.6 60 15.6 73 73 VRB 6 9 30.32 1027 10 16 N/A
1:53 pm 13:53 Sunny 74 23.3 61 16.1 64 64 E 6 9 30.29 1026 10 16 N/A
2:53 pm 14:53 Sunny 77 25 57 13.9 50 50 ESE 8 13 30.27 1025 10 16 N/A
3:53 pm 15:53 Mostly Sunny 80 26.7 56 13.3 44 44 VRB 7 11 30.24 1024 10 16 N/A
4:53 pm 16:53 Mostly Cloudy 79 26.1 56 13.3 45 45 VRB 6 9 30.22 1024 10 16 N/A
5:53 pm 17:53 Sunny 79 26.1 56 13.3 45 45 VRB 6 9 30.22 1023 10 16 N/A
6:53 pm 18:53 Sunny 77 25 54 12.2 45 45 ESE 6 9 30.21 1023 10 16 N/A
7:53 pm 19:53 Sunny 76 24.4 54 12.2 47 47 N N/A 30.21 1023 10 16 N/A
8:53 pm 20:53 Clear 68 20 57 13.9 68 68 N N/A 30.22 1023 10 16 N/A
9:53 pm 21:53 Clear 64 17.8 60 15.6 87 87 N N/A 30.23 1024 10 16 N/A
10:53 pm 22:53 Clear 62 16.7 57 13.9 84 84 N N/A 30.25 1024 10 16 N/A
11:53 pm 23:53 Clear 63 17.2 57 13.9 81 81 E 3 6 30.25 1024 10 16 N/A

Powered by AerisWeather